Flag for Russia Weather past 2 weeks in Volgograd, Russia

Now
59 °F

Clear.


Feels Like: 58 °F
Forecast: 52 / 79 °F
Wind: 8 mph from Southeast

Location: Volgograd Airport

Current Time: Apr 28, 2015 at 11:20:25 PM

Latest Report: Apr 28, 2015 at 10:30 PM


Visibility: 10 mi

Pressure: 30.09 "Hg

Humidity: 36%

Dew point: 32 °F

Location of VolgogradLocation

Historic Weather in Volgograd — Graph

°F

Volgograd temperature yesterday

Maximum temperature yesterday: 75 °F (at 2:00 PM)
Minimum temperature yesterday: 48 °F (at 12:00 AM)
Average temperature yesterday: 62 °F

Past Weeks' High & Low Weather Summary

 TemperatureHumidityPressure
High75 °F (Apr 27, 2:00 PM)100% (Apr 18, 4:30 AM)30.12 "Hg (Apr 18, 4:30 AM)
Low32 °F (Apr 23, 12:30 AM)15% (Apr 26, 2:00 PM)29.39 "Hg (Apr 20, 1:00 AM)
Average50 °F62%29.83 "Hg
* Reported Apr 13 10:00 PM — Apr 28 10:00 PM, Volgograd, Weather by CustomWeather, © 2015

Note: Actual official high and low records may vary slightly from our data, if they occured in-between our weather recording intervals... More about our weather records

Advertising

Volgograd weather history for previous 24 hours

 ConditionsComfort  
Time TempWeatherWind HumidityBarometerVisibility
10:00 PM
Tue, Apr 28
59 °FClear.8 mph36%30.12 "Hg10 mi
9:30 PM61 °FClear.8 mph34%30.12 "Hg10 mi
9:00 PM61 °FClear.6 mph34%30.12 "Hg10 mi
8:30 PM61 °FClear.6 mph34%30.09 "Hg10 mi
8:00 PM64 °FClear.3 mph30%30.09 "Hg10 mi
7:30 PM64 °FClear.6 mph30%30.09 "Hg10 mi
7:00 PM68 °FSunny.6 mph26%30.09 "Hg10 mi
6:30 PM68 °FSunny.6 mph28%30.09 "Hg10 mi
6:00 PM72 °FSunny.8 mph23%30.09 "Hg10 mi
5:30 PM73 °FSunny.8 mph20%30.09 "Hg10 mi
5:00 PM73 °FSunny.10 mph22%30.09 "Hg10 mi
4:30 PM73 °FPassing clouds.10 mph20%30.09 "HgN/A
4:00 PM73 °FPassing clouds.8 mph20%30.09 "HgN/A
3:30 PM75 °FPassing clouds.8 mph22%30.09 "HgN/A
3:00 PM75 °FPassing clouds.8 mph19%30.09 "HgN/A
2:30 PM75 °FPassing clouds.8 mph21%30.12 "HgN/A
2:00 PM75 °FPassing clouds.10 mph21%30.12 "HgN/A
1:30 PM75 °FPassing clouds.10 mph24%30.12 "HgN/A
1:00 PM73 °FSunny.6 mph25%30.12 "Hg10 mi
12:30 PM73 °FPassing clouds.8 mph23%30.12 "HgN/A
12:00 PM73 °FSunny.8 mph27%30.12 "Hg10 mi
11:30 AM72 °FSunny.3 mph31%30.12 "Hg10 mi
11:00 AM72 °FPassing clouds.6 mph31%30.12 "HgN/A
10:30 AM70 °FPassing clouds.6 mph31%30.12 "HgN/A
10:00 AM68 °FPassing clouds.6 mph33%30.12 "HgN/A
9:30 AM68 °FPassing clouds.6 mph35%30.12 "HgN/A
9:00 AM66 °FPassing clouds.6 mph37%30.12 "HgN/A
8:30 AM64 °FSunny.6 mph40%30.12 "Hg10 mi
8:00 AM61 °FSunny.6 mph42%30.12 "Hg10 mi
7:30 AM61 °FSunny.8 mph45%30.12 "Hg10 mi
7:00 AM57 °FSunny.8 mph51%30.12 "Hg10 mi
6:30 AM55 °FSunny.3 mph51%30.09 "Hg10 mi
6:00 AM52 °FSunny.3 mph62%30.09 "Hg10 mi
5:30 AM52 °FSunny.3 mph58%30.09 "Hg10 mi
5:00 AM50 °FSunny.3 mph62%30.09 "Hg10 mi
4:30 AM52 °FClear.1 mph58%30.09 "Hg10 mi
4:00 AM50 °FClear.6 mph62%30.07 "Hg10 mi
3:30 AM50 °FClear.1 mph62%30.07 "Hg10 mi
3:00 AM52 °FClear.6 mph58%30.07 "Hg10 mi
2:30 AM52 °FClear.6 mph58%30.07 "Hg10 mi
2:00 AM54 °FClear.8 mph54%30.07 "Hg10 mi
1:30 AM55 °FClear.13 mph51%30.07 "Hg10 mi
1:00 AM54 °FClear.8 mph54%30.07 "Hg10 mi
12:30 AM55 °FClear.8 mph51%30.07 "Hg10 mi
12:00 AM55 °FClear.8 mph51%30.07 "Hg10 mi
11:30 PM
Mon, Apr 27
55 °FClear.8 mph51%30.07 "Hg10 mi
11:00 PM55 °FClear.8 mph51%30.07 "Hg10 mi
Weather by CustomWeather, © 2015

See weather overviewHow to use our weather pages